Current weather by "City, St" or "zip code"  
 
Advertise Here

Current Conditions: Melbourne International Airport, FL

Fair


63.0 F

Last Updated on Nov 23 2020, 10:53 pm EST
Humidity: 97%
Wind Speed: NW 5.8 mph
Barometer 30.11 in
Dewpoint: 62.1 F
Visibility: 10.00 mi
Precip: --
Heat Index: NA
Wind Chill: 63 F
Current conditions at:

Melbourne International Airport, FL (KMLB)

Lat: 28.09973 Lon: 80.6356

Local Radar Image active severe weather and emergency alerts image image weather storm and storm spotter reports image weather observation monitoring service image
Local
Radar
Active
Alerts
Storm Reports Obs
Monitoring

Sign-up For Email & Text Message Weather Alert Notification Services


Advertise Here

Observation History for Melbourne International Airport, FL


Time Wind
(mph)
Vis
(mi)
Weather Precip (in) Temperature (F) Relative
Humidity
Wind
Chill
(F)
Heat
Index
(F)
Pressure
Air Dwpt altimeter
(in)
sea level
(mb)
Rmks
10:53 pm EST NW 5.8 10.00 Fair -- 63.0 62.1 97% 63 NA 30.11 1019.6
9:53 pm EST NW 5.8 10.00 Fair -- 61.0 61.0 100% 61 NA 30.12 1019.9
8:53 pm EST N 8.1 10.00 Fair -- 66.0 62.1 87% NA NA 30.11 1019.6
7:53 pm EST N 6.9 10.00 Fair -- 66.0 62.1 87% NA NA 30.10 1019.2
6:53 pm EST N 11.5 10.00 Fair -- 68.0 62.1 81% NA NA 30.09 1019.0
4:53 pm EST N 18.4 10.00 Fair -- 71.0 62.1 73% NA NA 30.07 1018.1
2:53 pm EST N 20.7 G 27.6 10.00 Partly Cloudy and Breezy -- 75.0 61.0 62% NA NA 30.05 1017.4
1:53 pm EST N 21.9 G 26.5 10.00 Fair and Breezy -- 75.0 64.0 69% NA NA 30.06 1017.7
12:53 pm EST N 17.3 10.00 Fair -- 75.0 66.0 74% NA NA 30.07 1018.0
11:53 am EST N 18.4 10.00 Partly Cloudy -- 75.0 66.0 74% NA NA 30.08 1018.4
10:53 am EST N 15.0 10.00 Mostly Cloudy -- 74.0 66.0 76% NA NA 30.08 1018.5
9:53 am EST NW 12.7 10.00 Overcast -- 71.0 68.0 90% NA NA 30.07 1018.2
8:53 am EST NW 11.5 10.00 Mostly Cloudy -- 70.0 69.1 97% NA NA 30.06 1017.8
7:53 am EST NW 6.9 10.00 Overcast -- 68.0 68.0 100% NA NA 30.05 1017.6
6:53 am EST NW 9.2 10.00 Overcast -- 67.0 66.9 100% NA NA 30.04 1017.0
5:53 am EST NW 8.1 10.00 Overcast -- 68.0 68.0 100% NA NA 30.02 1016.6
4:53 am EST NW 8.1 10.00 Overcast -- 68.0 68.0 100% NA NA 30.01 1016.2
3:53 am EST NW 10.4 9.00 Overcast -- 68.0 68.0 100% NA NA 30.01 1016.2
2:53 am EST NW 5.8 6.00 Fog/Mist -- 68.0 68.0 100% NA NA 30.02 1016.4
1:53 am EST NW 9.2 2.00 Fog/Mist -- 69.0 69.1 100% NA NA 30.02 1016.6
12:53 am EST NW 9.2 1.25 Fog/Mist -- 69.0 69.1 100% NA NA 30.03 1017.0
11:53 pm EST N 10.4 10.00 Overcast -- 69.0 69.1 100% NA NA 30.05 1017.6

Regional Weather Observation


Cocoa - Patrick Air Force Base, FL (KCOF)

Fair
69.0 F

Titusville, NASA Shuttle Landing Facility, FL (KTTS)

Fair
67.0 F

Cocoa Beach, Cape Canaveral Air Force Station Skid Strip, FL (KXMR)

Fair
68.0 F

Orlando International Airport, FL (KMCO)

Fair
61.0 F

Orlando Executive Airport, FL (KORL)

Fair
65.0 F

Kissimmee Gateway Airport, FL (KISM)

Fair
65.0 F